Weather History for Olean, NY

Change the Weather History Date:

Thursday, September 5, 2013

  Actual Average (KBFD) Record (KBFD)
Temperature  
Mean Temperature 53 °F 60 °F  
Max Temperature 62 °F 72 °F 86 °F (1973)
Min Temperature 44 °F 49 °F 33 °F (1972)
Degree Days  
Heating Degree Days 12 2  
Month to date heating degree days 10  
Since 1 July heating degree days 163  
Cooling Degree Days 0 1  
Month to date cooling degree days 5  
Year to date cooling degree days 182  
Growing Degree Days 3 (Base 50)    
Moisture  
Dew Point 46 °F    
Average Humidity 73    
Maximum Humidity 100    
Minimum Humidity 45    
Precipitation  
Precipitation 0.00 in 0.13 in 0.65 in (1973)
Month to date precipitation 0.65  
Year to date precipitation 30.60  
Sea Level Pressure  
Sea Level Pressure 30.14 in    
Wind  
Wind Speed 5 mph (NNW)    
Max Wind Speed 10 mph    
Max Gust Speed 17 mph    
Visibility 10 miles    
Events Rain    
T = Trace of Precipitation, MM = Missing Value Source: NWS Daily Summary

Daily Weather History Graph

Daily Weather History Graph

Search for Another Location

Airport:

Trip Planner

Search our weather history database for the weather conditions in past years. The results will help you decide how hot, cold, wet, or windy it might be!

Date:

Astronomy

Sep. 05, 2013 Rise Set
Actual Time 6:43 AM EDT 7:40 PM EDT
Civil Twilight 6:14 AM EDT 8:08 PM EDT
Nautical Twilight 5:40 AM EDT 8:42 PM EDT
Astronomical Twilight 5:05 AM EDT 9:17 PM EDT
Moon 6:54 AM EDT (9/5) 7:29 PM EDT (9/5)
Length of Visible Light 13h 54m
Length of Day
12h 56m
New Moon, 0% of the Moon is Illuminated
Sep 5
New Moon
Sep 12
First Quarter
Sep 19
Full
Sep 26
Last Quarter
Oct 4
New

Hourly Weather History & Observations

Time (EDT) Temp. Windchill Dew Point Humidity Pressure Visibility Wind Dir Wind Speed Gust Speed Precip Events Conditions
12:15 AM 60.8 °F - 53.6 °F 77% 30.03 in 10.0 mi WSW 6.9 mph - N/A   Mostly Cloudy
12:35 AM 60.8 °F - 53.6 °F 77% 30.04 in 10.0 mi West 5.8 mph - N/A   Overcast
12:55 AM 60.8 °F - 53.6 °F 77% 30.04 in 10.0 mi West 4.6 mph - N/A   Drizzle
1:15 AM 59.0 °F - 55.4 °F 88% 30.04 in 10.0 mi West 3.5 mph - N/A Rain Light Rain
1:35 AM 59.0 °F - 55.4 °F 88% 30.03 in 10.0 mi Calm Calm - N/A   Overcast
1:55 AM 59.0 °F - 55.4 °F 88% 30.04 in 10.0 mi Calm Calm - N/A Rain Rain
2:15 AM 59.0 °F - 55.4 °F 88% 30.04 in 10.0 mi Calm Calm - N/A   Overcast
2:35 AM 59.0 °F - 55.4 °F 88% 30.03 in 10.0 mi Calm Calm - N/A   Overcast
2:55 AM 59.0 °F - 55.4 °F 88% 30.03 in 10.0 mi Calm Calm - N/A   Overcast
3:15 AM 57.2 °F - 55.4 °F 94% 30.04 in 10.0 mi West 3.5 mph - N/A   Overcast
3:35 AM 57.2 °F - 55.4 °F 94% 30.04 in 10.0 mi NW 3.5 mph - N/A   Overcast
3:55 AM 57.2 °F - 55.4 °F 94% 30.05 in 10.0 mi NW 4.6 mph - N/A   Overcast
4:15 AM 55.4 °F - 53.6 °F 94% 30.05 in 10.0 mi WNW 6.9 mph - N/A   Overcast
4:35 AM 55.4 °F - 53.6 °F 94% 30.05 in 10.0 mi Calm Calm - N/A   Overcast
4:55 AM 55.4 °F - 53.6 °F 94% 30.06 in 10.0 mi North 4.6 mph - N/A   Overcast
5:15 AM 53.6 °F - 51.8 °F 94% 30.08 in 10.0 mi NNW 8.1 mph - N/A   Overcast
5:35 AM 53.6 °F - 51.8 °F 94% 30.08 in 10.0 mi North 4.6 mph - N/A   Overcast
5:55 AM 51.8 °F - 50.0 °F 94% 30.09 in 10.0 mi North 4.6 mph - N/A   Mostly Cloudy
6:15 AM 50.0 °F - 50.0 °F 100% 30.10 in 10.0 mi North 4.6 mph - N/A   Clear
6:35 AM 50.0 °F - 50.0 °F 100% 30.10 in 10.0 mi North 6.9 mph - N/A   Clear
6:55 AM 50.0 °F - 48.2 °F 94% 30.10 in 10.0 mi NNW 4.6 mph - N/A   Clear
7:15 AM 50.0 °F - 48.2 °F 94% 30.11 in 10.0 mi Calm Calm - N/A   Clear
7:35 AM 50.0 °F - 50.0 °F 100% 30.11 in 10.0 mi NNW 3.5 mph - N/A   Clear
7:55 AM 50.0 °F - 50.0 °F 100% 30.12 in 10.0 mi Calm Calm - N/A   Clear
8:15 AM 51.8 °F - 50.0 °F 94% 30.12 in 10.0 mi NNW 3.5 mph - N/A   Clear
8:35 AM 51.8 °F - 50.0 °F 94% 30.13 in 10.0 mi Calm Calm - N/A   Scattered Clouds
8:55 AM 53.6 °F - 50.0 °F 88% 30.13 in 10.0 mi NNW 4.6 mph - N/A   Mostly Cloudy
9:15 AM 53.6 °F - 46.4 °F 77% 30.13 in 10.0 mi NNW 5.8 mph - N/A   Scattered Clouds
9:35 AM 53.6 °F - 46.4 °F 77% 30.13 in 10.0 mi NW 3.5 mph - N/A   Clear
9:55 AM 55.4 °F - 46.4 °F 72% 30.15 in 10.0 mi NNW 4.6 mph - N/A   Scattered Clouds
10:15 AM 55.4 °F - 44.6 °F 67% 30.15 in 10.0 mi NNW 6.9 mph - N/A   Scattered Clouds
10:35 AM 55.4 °F - 46.4 °F 72% 30.15 in 10.0 mi NNW 6.9 mph - N/A   Scattered Clouds
10:55 AM 55.4 °F - 46.4 °F 72% 30.15 in 10.0 mi NNW 4.6 mph - N/A   Scattered Clouds
11:15 AM 57.2 °F - 44.6 °F 63% 30.15 in 10.0 mi NW 6.9 mph - N/A   Scattered Clouds
11:35 AM 59.0 °F - 44.6 °F 59% 30.15 in 10.0 mi NNW 8.1 mph - N/A   Mostly Cloudy
11:55 AM 59.0 °F - 44.6 °F 59% 30.16 in 10.0 mi North 6.9 mph - N/A   Mostly Cloudy
12:15 PM 59.0 °F - 44.6 °F 59% 30.16 in 10.0 mi NW 4.6 mph - N/A   Scattered Clouds
12:35 PM 60.8 °F - 44.6 °F 55% 30.16 in 10.0 mi NW 6.9 mph - N/A   Mostly Cloudy
12:55 PM 59.0 °F - 44.6 °F 59% 30.16 in 10.0 mi NW 3.5 mph - N/A   Scattered Clouds
1:15 PM 60.8 °F - 44.6 °F 55% 30.16 in 10.0 mi WNW 4.6 mph - N/A   Mostly Cloudy
1:35 PM 60.8 °F - 42.8 °F 52% 30.16 in 10.0 mi West 6.9 mph 16.1 mph N/A   Scattered Clouds
1:55 PM 62.6 °F - 42.8 °F 48% 30.16 in 10.0 mi WNW 6.9 mph - N/A   Mostly Cloudy
2:15 PM 62.6 °F - 44.6 °F 52% 30.16 in 10.0 mi WNW 6.9 mph - N/A   Scattered Clouds
2:35 PM 62.6 °F - 44.6 °F 52% 30.16 in 10.0 mi WNW 10.4 mph - N/A   Mostly Cloudy
2:55 PM 62.6 °F - 44.6 °F 52% 30.16 in 10.0 mi NW 9.2 mph 17.3 mph N/A   Mostly Cloudy
3:15 PM 60.8 °F - 42.8 °F 52% 30.16 in 10.0 mi WNW 10.4 mph 16.1 mph N/A   Scattered Clouds
3:35 PM 60.8 °F - 44.6 °F 55% 30.16 in 10.0 mi NW 6.9 mph - N/A   Mostly Cloudy
3:55 PM 60.8 °F - 42.8 °F 52% 30.16 in 10.0 mi NNW 9.2 mph 17.3 mph N/A   Mostly Cloudy
4:15 PM 60.8 °F - 44.6 °F 55% 30.17 in 10.0 mi NW 6.9 mph - N/A   Scattered Clouds
4:35 PM 59.0 °F - 42.8 °F 55% 30.17 in 10.0 mi NNW 8.1 mph - N/A   Scattered Clouds
4:55 PM 59.0 °F - 42.8 °F 55% 30.17 in 10.0 mi NW 8.1 mph 17.3 mph N/A   Scattered Clouds
5:15 PM 59.0 °F - 41.0 °F 51% 30.18 in 10.0 mi WNW 8.1 mph - N/A   Clear
5:35 PM 59.0 °F - 37.4 °F 45% 30.18 in 10.0 mi NW 6.9 mph - N/A   Clear
5:55 PM 57.2 °F - 41.0 °F 55% 30.19 in 10.0 mi NW 5.8 mph - N/A   Clear
6:15 PM 55.4 °F - 37.4 °F 51% 30.19 in 10.0 mi NW 8.1 mph - N/A   Clear
6:35 PM 55.4 °F - 37.4 °F 51% 30.19 in 10.0 mi NW 6.9 mph - N/A   Clear
6:55 PM 53.6 °F - 39.2 °F 58% 30.20 in 10.0 mi NW 5.8 mph - N/A   Clear
7:15 PM 53.6 °F - 39.2 °F 58% 30.20 in 10.0 mi NW 3.5 mph - N/A   Clear
7:35 PM 51.8 °F - 39.2 °F 62% 30.20 in 10.0 mi NW 3.5 mph - N/A   Clear
7:55 PM 50.0 °F - 37.4 °F 62% 30.20 in 10.0 mi Calm Calm - N/A   Clear
8:15 PM 50.0 °F - 37.4 °F 62% 30.21 in 10.0 mi Calm Calm - N/A   Clear
8:35 PM 50.0 °F - 37.4 °F 62% 30.21 in 10.0 mi Calm Calm - N/A   Clear
8:55 PM 48.2 °F - 37.4 °F 66% 30.22 in 10.0 mi North 4.6 mph - N/A   Clear
9:15 PM 48.2 °F - 37.4 °F 66% 30.23 in 10.0 mi North 4.6 mph - N/A   Clear
9:35 PM 46.4 °F 44.3 °F 39.2 °F 76% 30.23 in 10.0 mi North 4.6 mph - N/A   Clear
9:55 PM 44.6 °F 41.4 °F 39.2 °F 81% 30.24 in 10.0 mi North 5.8 mph - N/A   Clear
10:15 PM 44.6 °F 42.2 °F 37.4 °F 76% 30.24 in 10.0 mi North 4.6 mph - N/A   Clear
10:35 PM 44.6 °F 41.4 °F 37.4 °F 76% 30.24 in 10.0 mi NNE 5.8 mph - N/A   Clear
10:55 PM 44.6 °F 42.2 °F 35.6 °F 71% 30.25 in 10.0 mi NNE 4.6 mph - N/A   Clear
11:15 PM 44.6 °F 42.2 °F 35.6 °F 71% 30.25 in 10.0 mi NNE 4.6 mph - N/A   Clear
11:35 PM 44.6 °F 42.2 °F 35.6 °F 71% 30.25 in 10.0 mi NE 4.6 mph - N/A   Clear
11:55 PM 44.6 °F - 35.6 °F 71% 30.25 in 10.0 mi Calm Calm - N/A   Clear